Tracking 30402 objects as of 13-May-2025
HD Live streaming from Space Station
objects crossing your sky now

DMSP 5D-2 F14 DEB

Track DMSP 5D-2 F14 DEB now!
10-day predictions


NORAD ID: 62946
Int'l Code: 1997-012S
Perigee: 774.3 km
Apogee: 791.9 km
Inclination: 98.5 °
Period: 100.4 minutes
Semi major axis: 7154 km
RCS: Unknown
Launch date: April 4, 1997
Source: United States (US)
Launch site: AIR FORCE WESTERN TEST RANGE (AFWTR)

Note: This is SATELLITE DEBRIS
Your satellite tracking list
Your tracking list is empty




NASA's NSSDC Master Catalog

Two Line Element Set (TLE):
1 62946U 97012S   25132.88127302  .00037043  00000-0  13013-1 0  9996
2 62946  98.5400 178.2704 0012283 337.6657  22.3992 14.34724831451720
Source of the keplerian elements: AFSPC